Location: *
(35.8942°N, 23.3025°E)
Time: 23:46:35
(UTC+00:00)

CZ-2C R/B - Pass Details

Date: 21 September 2021
Orbit: 500 x 565 km, 97.7° (Epoch: 22 October)

Event Time Altitude Azimuth Distance (km) Brightness Sun altitude
Rises 03:15:44 0° 355° (N) 2,741 6.5 -12.6°
Reaches altitude 10° 03:18:15 10° 340° (NNW) 1,831 5.4 -12.0°
Maximum altitude 03:21:15 21° 290° (WNW) 1,252 4.1 -11.5°
Enters shadow 03:22:59 16° 256° (WSW) 1,459 4.3 -11.1°
